NIMBUS 2 DEB, 38183

Orbit data source: Space-Track

NIMBUS 2 DEB, 38183 is space debris in SSO originally from a launch on Sun, 15 May 1966 UTC launched from the Air Force Western Test Range (AFWTR). Debris objects in space refer to the collection of defunct objects orbiting the Earth. Examples of debris include non-operational satellites, rocket bodies, and fragments generated from explosions, collisions, or faulty payload assembly.

Loading next visibility...
Identifier
38183, 1966-040BB
Orbit
SSO
Country
Flag of USUS
Related business
Manufacturer
Unknown
Mission
Spacecraft
Bus & Motor
Unknown
Mass
Unknown
Launch date (UTC)
1966-05-15 (60 years ago)
Launch vehicle
Unknown
Launch site
Air Force Western Test Range (AFWTR)
Object type
Payload
Rocket body
Debris
Shape & HBR
Unknown shape, 0.1 m
Radar Cross Section
Small (<0.1 m²)

Expand to show TLE details & history
Last TLE update: 17 hours ago

TLE from 17 hours ago
0 NIMBUS 2 DEB
1 38183U 66040BB  26125.25943808  .00001653  00000-0  28070-2 0  9998
2 38183 100.4665  52.2526 0052978 308.1641 208.8208 13.46394056703248
Epoch: 2026-05-05T06:13Z
TLE epoch observation values (Epoch: 2026-05-05T06:13:35.450Z)
Latitude
22.91503°
Longitude
-79.82596°
Altitude
1,122.887 km
Speed
7.276 km/s
True Right ascension
15h 46m 50s
True Declination
22° 47' 53"
Sunlit
Object was in full shadow at epoch
Visualization orbit readout
Latitude
Unknown
Longitude
Unknown
Altitude
Unknown
Speed
Unknown
Apparent Right ascension
Unknown
Apparent Declination
Unknown
Sunlit
N/A
Visualization observer readout
Local Sidereal Time
06:44:33
Azimuth
Unknown
Elevation
Unknown
Doppler factor
Unknown
Orbital elements
Apogee altitude
1,122.429 km
Perigee altitude
1,043.375 km
Semi-major axis
7,461.039 km
Eccentricity
0.0053
Inclination
100.4665°
RAAN
52.2526°
Arg. of periapsis
308.1641°
True anomaly
208.52983°
Mean anomaly
208.8208°
Eccentric anomaly
208.67515°
Mean motion
3.36778 °/min
Orbital period
106.9 mins
BSTAR
0.002807
Loading maneuver chart data...
Computing Atmospheric mass density...
Loading historical data...
Loading historical data...
Loading historical data...
Loading historical data...
Loading historical data...
Loading historical data...
Loading historical data...

Documentation

Showing up to 5 results
|